CDT,Max TemperatureF,Mean TemperatureF,Min TemperatureF,Max Dew PointF,MeanDew PointF,Min DewpointF,Max Humidity, Mean Humidity, Min Humidity, Max Sea Level PressureIn, Mean Sea Level PressureIn, Min Sea Level PressureIn, Max VisibilityMiles, Mean VisibilityMiles, Min VisibilityMiles, Max Wind SpeedMPH, Mean Wind SpeedMPH, Max Gust SpeedMPH,PrecipitationIn, CloudCover, Events, WindDirDegrees
2012-9-1,91,84,77,75,72,68,84,68,46,30.06,29.99,29.96,10,10,7,24,9,31,0.02,1,Rain-Thunderstorm,148
2012-9-2,98,88,77,73,69,63,89,61,30,30.04,29.98,29.92,10,10,7,20,10,25,0.00,1,,153
2012-9-3,98,88,77,73,70,63,89,62,30,29.99,29.94,29.86,10,10,7,18,10,26,0.00,2,,156
2012-9-4,98,88,77,73,69,59,83,60,27,29.96,29.90,29.83,10,10,7,22,11,28,0.00,1,,159
2012-9-5,100,88,77,73,69,61,83,60,29,29.91,29.86,29.78,10,10,7,17,9,24,0.00,2,,153
2012-9-6,98,88,77,73,68,61,89,58,29,29.94,29.88,29.83,10,9,5,17,9,24,0.00,1,,148
2012-9-7,100,86,73,73,69,59,89,59,25,29.92,29.85,29.78,10,10,7,16,8,23,0.00,1,,159
2012-9-8,100,88,75,73,68,55,89,58,22,29.97,29.88,29.83,10,9,5,15,7,24,0.00,0,,140
2012-9-9,87,79,71,73,69,64,94,71,46,30.08,30.02,29.96,10,9,2,17,4,16,0.66,4,Rain-Thunderstorm,48
2012-9-10,91,80,68,68,63,57,94,63,31,30.09,30.02,29.96,10,10,7,15,2,22,0.00,0,,71
2012-9-11,96,81,66,72,64,52,88,62,23,30.03,29.98,29.91,10,10,5,16,3,22,0.00,1,,119
2012-9-12,96,86,77,73,69,63,89,63,34,30.00,29.95,29.89,10,10,7,21,9,29,0.00,2,,151
2012-9-13,93,84,75,73,69,61,89,68,34,30.07,29.99,29.92,10,10,7,21,8,32,0.02,2,Rain-Thunderstorm,147
2012-9-14,91,82,73,70,67,63,88,67,40,30.13,30.06,30.00,10,10,7,16,4,24,0.00,2,Thunderstorm,41
2012-9-15,89,80,71,70,68,64,88,71,43,30.13,30.07,30.01,10,10,5,15,7,21,0.00,4,Rain,6
2012-9-16,91,81,71,70,67,63,94,70,40,30.06,29.97,29.88,10,10,7,12,4,,0.00,4,,337
2012-9-17,96,82,68,68,66,59,94,67,30,29.95,29.85,29.75,10,9,2,14,3,22,0.00,2,,63
2012-9-18,95,84,73,73,68,63,89,66,39,30.01,29.92,29.85,10,10,5,16,5,28,0.01,2,Rain-Thunderstorm,85
2012-9-19,91,80,69,68,64,55,88,62,33,30.09,30.03,29.96,10,10,7,13,2,20,0.00,2,,42
2012-9-20,95,82,68,68,61,52,88,59,24,30.05,30.00,29.93,10,10,5,14,2,21,0.00,1,,71
2012-9-21,93,78,62,63,57,46,88,55,20,30.00,29.95,29.88,10,10,5,14,2,20,0.00,0,,64
2012-9-22,95,80,64,70,64,59,88,65,30,30.07,30.01,29.96,10,10,2,16,2,21,0.00,2,Rain,96
2012-9-23,95,82,69,72,69,63,94,76,34,30.13,30.09,30.04,10,10,1,16,2,29,0.56,1,Rain-Thunderstorm,145
2012-9-24,95,82,69,72,67,55,94,67,26,30.13,30.06,29.97,10,10,10,15,3,21,0.00,2,,114
2012-9-25,95,84,73,70,67,61,88,64,34,30.04,29.97,29.89,10,10,10,17,6,25,0.00,2,,139
2012-9-26,91,83,75,73,70,68,83,68,46,29.97,29.92,29.87,10,10,3,16,6,28,0.17,3,Rain,129
2012-9-27,93,83,73,73,71,68,94,73,46,30.00,29.96,29.90,10,10,2,22,5,41,0.28,2,Rain-Thunderstorm,112
2012-9-28,87,80,73,73,72,70,94,75,58,29.97,29.91,29.83,10,10,4,16,6,24,0.03,1,Rain-Thunderstorm,129
2012-9-29,95,86,77,75,72,66,89,70,39,29.88,29.79,29.68,10,10,3,20,8,25,0.26,2,Rain-Thunderstorm,172
2012-9-30,89,79,69,72,61,57,78,58,35,29.89,29.82,29.77,10,10,7,20,11,29,0.00,2,Thunderstorm,331